[Iaude] MPEC G150: 2024 GC3 [a=1.11,e=0.05,i=6.6,H=25.0]

mpec at cfa.harvard.edu mpec at cfa.harvard.edu
Thu Apr 11 07:18:11 EDT 2024


M.P.E.C. 2024-G150                               Issued 2024 April 11, 11:16 UT

     The Minor Planet Electronic Circulars contain information on unusual
         minor planets, routine data on comets and natural satellites,
         and occasional editorial announcements.  They are published
    on behalf of Division F of the International Astronomical Union by the
          Minor Planet Center, Smithsonian Astrophysical Observatory,
                          Cambridge, MA 02138, U.S.A.
			  
             Prepared using the Tamkin Foundation Computer Network

                              MPC at CFA.HARVARD.EDU
            URL https://www.minorplanetcenter.net/    ISSN 1523-6714

                                    2024 GC3                                    


Observations:
     K24G03C* C2024 04 08.43076713 58 33.994-11 29 40.88         21.72wXEG150F52
     K24G03C  C2024 04 08.44260113 58 33.044-11 29 00.69         21.28wXEG150F52
     K24G03C  C2024 04 08.45442913 58 32.112-11 28 19.86         21.21wXEG150F52
     K24G03C  C2024 04 08.46624913 58 31.184-11 27 39.76         21.49wXEG150F52
     K24G03C  C2024 04 08.50687113 58 27.921-11 25 20.70         21.75GVEG150F51
     K24G03C  C2024 04 08.50751713 58 27.857-11 25 18.84         21.53GVEG150F51
     K24G03C 3C2024 04 09.46646913 57 37.052-10 30 39.04         21.22GVEG150T14
     K24G03C 3C2024 04 09.46744713 57 36.972-10 30 35.66         21.26GVEG150T14
     K24G03C 3C2024 04 09.46842313 57 36.892-10 30 32.34         21.27GVEG150T14
     K24G03C 7C2024 04 10.02556513 57 06.529-09 58 57.13         21.2 GVEG150Z84
     K24G03C 7C2024 04 10.03149913 57 06.026-09 58 36.66         21.1 GVEG150Z84
     K24G03C 7C2024 04 10.03745413 57 05.579-09 58 16.01               VEG150Z84
     K24G03C KC2024 04 10.37776813 56 45.578-09 38 43.40         21.46GVEG150I52
     K24G03C KC2024 04 10.40608113 56 43.274-09 37 06.20         20.74GVEG150I52
     K24G03C KC2024 04 10.40918513 56 43.087-09 36 54.97         21.10GVEG150I52
     K24G03C KC2024 04 11.37588 13 55 48.93 -08 41 34.7          21.7 RVEG150691
     K24G03C KC2024 04 11.38552 13 55 48.23 -08 41 01.2          20.2 RVEG150691
     K24G03C KC2024 04 11.39516 13 55 47.44 -08 40 28.4          21.7 RVEG150691

Observer details:
691 Steward Observatory, Kitt Peak-Spacewatch.  Observer R. A. Mastaler.
    0.9-m f/3 reflector + CCD.
F51 Pan-STARRS 1, Haleakala.  Observers J. Herman, T. Lowe, P. Minguez, A.
    Schultz, I. Smith.  Measurers K. Chambers, T. de Boer, J. Fairlamb, H.
    Gao, M. Huber, C.-C. Lin, E. Magnier, Y. Ramanjooloo, R. Wainscoat, R.
    Weryk.  1.8-m Ritchey-Chretien + CCD.
F52 Pan-STARRS 2, Haleakala.  Observers J. Herman, T. Lowe, P. Minguez, A.
    Schultz, I. Smith.  Measurers K. Chambers, T. de Boer, J. Fairlamb, H.
    Gao, M. Huber, C.-C. Lin, E. Magnier, Y. Ramanjooloo, R. Wainscoat, R.
    Weryk.  1.8-m Ritchey-Chretien + CCD.
I52 Steward Observatory, Mt. Lemmon Station.  Observer G. J. Leonard.
    Measurers T. Beuden, V. F. Carvajal, D. Fay, J. B. Fazekas, D. C. Fuls, A.
    R. Gibbs, A. D. Grauer, H. Groeller, J. K. Hogan, R. A. Kowalski, S. M.
    Larson, G. J. Leonard, D. Rankin, R. L. Seaman, F. C. Shelly, K. W.
    Wierzchos.  1.0-m prime focus + CCD.
T14 Canada-France-Hawaii Telescope, Maunakea.  Observers R. Wainscoat, L.
    Wells, N. Manset.  Measurers R. Weryk, R. Wainscoat.  3.6-m f/4.1
    reflector + CCD.
Z84 Calar Alto-Schmidt.  Observers F. Ocana, R. Kresken, M. Micheli, L.
    Conversi.  Measurers F. Ocana, M. Micheli.  0.8-m f/3 Schmidt + CCD.

Orbital elements:
2024 GC3                                                 Earth MOID = 0.0906 AU
Epoch 2024 Mar. 31.0 TT = JDT 2460400.5                 Veres                   
M  98.45240              (2000.0)            P               Q                  
n   0.84088556     Peri.  249.76735     +0.01273304     -0.99917453             
a   1.1116757      Node   199.62260     +0.95493594     +0.02359238             
e   0.0486857      Incl.    6.59617     +0.29653873     -0.03307047             
P   1.17           H   25.05          G   0.15           U   8                  
Residuals in seconds of arc
240408 F52  0.1-  0.4-    240409 T14  0.0   0.0     240410 I52  0.1+  0.3+
240408 F52  0.2-  0.3-    240409 T14  0.0   0.0     240410 I52  0.9-  0.4-
240408 F52  0.0   0.3+    240409 T14  0.0   0.0     240410 I52  0.0   0.1+
240408 F52  0.3+  0.1+    240410 Z84  0.3+  0.1+    240411 691  0.3-  0.2-
240408 F51  0.1+  0.3+    240410 Z84  0.3-  0.3+    240411 691  0.9+  0.0
240408 F51  0.1-  0.1-    240410 Z84  0.1+  0.5+    240411 691  0.7+  0.5-

Ephemeris:
2024 GC3                 a,e,i = 1.11, 0.05, 7                   q = 1.0576
Date    TT    R. A. (2000) Decl.     Delta      r    Elong.  Phase     V
2024 03 12    14 01 10.7 -30 28 57   0.1642  1.1072   130.4    43.1    23.0
...
2024 03 27    14 05 49.5 -22 10 39   0.1396  1.1191   148.4    27.8    22.3
...
2024 04 04    14 02 05.0 -15 35 22   0.1319  1.1252   160.3    17.4    21.8
...
2024 04 10    13 57 07.7 -09 59 38   0.1298  1.1297   169.4     9.4    21.5
2024 04 11    13 56 11.4 -09 02 24   0.1298  1.1305   170.7     8.3    21.5
2024 04 12    13 55 14.0 -08 05 12   0.1299  1.1312   171.8     7.2    21.4
...
2024 04 18    13 49 21.0 -02 30 19   0.1327  1.1355   171.6     7.4    21.5
...
2024 04 26    13 42 13.2 +04 00 38   0.1416  1.1409   160.8    16.9    22.0
...
2024 05 11    13 35 17.1 +11 47 35   0.1715  1.1498   141.9    32.8    22.9

M. P. C. Staff               (C) Copyright 2024 MPC           M.P.E.C. 2024-G150





More information about the Iaude mailing list